Basel, France

11:52 AM CEST on June 26, 2017 (GMT +0200)
Basle-Mulhouse

Weather History for LFSB - November, 2012

Change the Weather History Date:

Sunday, November 11, 2012

  Actual Average Record
Temperature  
Mean Temperature 48 °F -  
Max Temperature 50 °F 44 °F 60 °F (2008)
Min Temperature 46 °F 32 °F 26 °F (2001)
Degree Days  
Heating Degree Days 17    
Moisture  
Dew Point 47 °F    
Average Humidity 93    
Maximum Humidity 100    
Minimum Humidity 87    
Precipitation  
Precipitation 0.31 in - - ()
Sea Level Pressure  
Sea Level Pressure 29.87 in    
Wind  
Wind Speed 4 mph ()    
Max Wind Speed 9 mph    
Max Gust Speed -    
Visibility 5.2 miles    
Events Rain    
Averages and records for this station are not official NWS values.
T = Trace of Precipitation, MM = Missing Value Source: Averaged Metar Reports

Daily Weather History Graph

Daily Weather History Graph

Search for Another Location

Airport or City:

Trip Planner

Search our weather history database for the weather conditions in past years. The results will help you decide how hot, cold, wet, or windy it might be!

Date:

Astronomy

Nov. 11, 2012 Rise Set
Actual Time 7:29 AM CET 4:57 PM CET
Civil Twilight 6:56 AM CET 5:31 PM CET
Nautical Twilight 6:19 AM CET 6:08 PM CET
Astronomical Twilight 5:42 AM CET 6:44 PM CET
Moon 4:14 AM CET (11/11) 3:19 PM CET (11/11)
Length of Visible Light 10h 34m
Length of Day
9h 28m
Waning Crescent, 9% of the Moon is Illuminated
Nov 11
Waning Crescent
Nov 13
New
Nov 20
First Quarter
Nov 28
Full
Dec 6
Last Quarter

Hourly Weather History & Observations

Time (CET) Temp. Dew Point Humidity Pressure Visibility Wind Dir Wind Speed Gust Speed Precip Events Conditions
12:00 AM 50.0 °F 46.4 °F 87% 29.71 in 6.2 mi SE 4.6 mph - N/A Rain Light Rain
12:30 AM 50.0 °F 48.2 °F 94% 29.71 in 6.2 mi SE 8.1 mph - N/A   Light Drizzle
1:00 AM 50 °F 47 °F 87% 29.73 in 31 mi ESE 2.3 mph - -   Clear
1:00 AM 50.0 °F 48.2 °F 94% 29.71 in 6.2 mi Variable 2.3 mph - N/A   Mostly Cloudy
1:30 AM 50.0 °F 48.2 °F 94% 29.71 in 6.2 mi SE 4.6 mph - N/A   Unknown
2:00 AM 50.0 °F 48.2 °F 94% 29.71 in 6.2 mi South 3.5 mph - N/A Rain Light Rain
2:30 AM 48.2 °F 46.4 °F 93% 29.71 in 6.2 mi SW 2.3 mph - N/A Rain Light Rain
3:00 AM 48.2 °F 46.4 °F 93% 29.71 in 6.2 mi South 3.5 mph - N/A   Overcast
3:30 AM 48.2 °F 46.4 °F 93% 29.71 in 6.2 mi Variable 2.3 mph - N/A Rain Light Rain
4:00 AM 48.2 °F 46.4 °F 93% 29.71 in 5.6 mi SSW 3.5 mph - N/A   Unknown
4:30 AM 48.2 °F 46.4 °F 93% 29.71 in 5.0 mi SW 3.5 mph - N/A Rain Light Rain
5:00 AM 48.2 °F 46.4 °F 93% 29.74 in 5.0 mi SW 4.6 mph - N/A Rain Light Rain
5:30 AM 48.2 °F 46.4 °F 93% 29.74 in 6.2 mi SW 4.6 mph - N/A Rain Light Rain
6:00 AM 48.2 °F 46.4 °F 93% 29.74 in 5.0 mi Variable 2.3 mph - N/A Rain Light Rain
6:30 AM 48.2 °F 46.4 °F 93% 29.74 in 5.0 mi SE 3.5 mph - N/A Rain Light Rain
7:00 AM 48.2 °F 46.4 °F 93% 29.77 in 4.3 mi Variable 3.5 mph - N/A Rain Light Rain
7:30 AM 48.2 °F 46.4 °F 93% 29.77 in 3.7 mi South 2.3 mph - N/A Rain Light Rain
8:00 AM 48.2 °F 46.4 °F 93% 29.77 in 3.1 mi South 2.3 mph - N/A Rain Light Rain
8:30 AM 48.2 °F 46.4 °F 93% 29.77 in 3.1 mi Variable 2.3 mph - N/A Rain Light Rain
9:00 AM 48.2 °F 46.4 °F 93% 29.77 in 3.1 mi Calm Calm - N/A Rain Light Rain
9:30 AM 48.2 °F 48.2 °F 100% 29.80 in 3.1 mi SSW 2.3 mph - N/A Rain Light Rain
10:00 AM 50.0 °F 48.2 °F 94% 29.80 in 3.1 mi South 3.5 mph - N/A Rain Light Rain
10:30 AM 50.0 °F 48.2 °F 94% 29.80 in 3.1 mi Variable 2.3 mph - N/A Rain Light Rain
11:00 AM 50.0 °F 48.2 °F 94% 29.83 in 3.1 mi West 2.3 mph - N/A Rain Rain
11:30 AM 50.0 °F 48.2 °F 94% 29.86 in 2.5 mi SW 2.3 mph - N/A Rain Rain
12:00 PM 50.0 °F 48.2 °F 94% 29.86 in 3.7 mi West 3.5 mph - N/A Rain Rain
12:30 PM 50.0 °F 48.2 °F 94% 29.86 in 3.7 mi West 3.5 mph - N/A Rain Light Rain
1:00 PM 48 °F 47 °F 93% 29.90 in 4 mi NNW 8.1 mph - - Rain Light Rain
1:00 PM 48.2 °F 46.4 °F 93% 29.86 in 3.7 mi NNW 9.2 mph - N/A Rain Light Rain
1:30 PM 48.2 °F 46.4 °F 93% 29.89 in 3.7 mi NNW 6.9 mph - N/A Rain Light Rain
2:00 PM 48.2 °F 46.4 °F 93% 29.89 in 5.0 mi NNW 6.9 mph - N/A Rain Light Rain
2:30 PM 48.2 °F 46.4 °F 93% 29.92 in 6.2 mi NW 8.1 mph - N/A Rain Light Rain
3:00 PM 48.2 °F 46.4 °F 93% 29.92 in 6.2 mi NW 6.9 mph - N/A Rain Light Rain
3:30 PM 48.2 °F 46.4 °F 93% 29.92 in 6.2 mi NW 6.9 mph - N/A Rain Light Rain
4:00 PM 48.2 °F 46.4 °F 93% 29.95 in 6.2 mi WNW 8.1 mph - N/A Rain Light Rain
4:30 PM 48.2 °F 46.4 °F 93% 29.95 in 6.2 mi NW 6.9 mph - N/A Rain Light Rain
5:00 PM 48.2 °F 44.6 °F 87% 29.98 in 6.2 mi WNW 8.1 mph - N/A   Mostly Cloudy
5:30 PM 48.2 °F 44.6 °F 87% 29.98 in 6.2 mi West 6.9 mph - N/A   Mostly Cloudy
6:00 PM 48.2 °F 44.6 °F 87% 30.01 in 6.2 mi West 5.8 mph - N/A   Mostly Cloudy
6:30 PM 48.2 °F 46.4 °F 93% 30.04 in 6.2 mi West 3.5 mph - N/A   Mostly Cloudy
7:00 PM 48 °F 46 °F 88% 30.07 in 9 mi SW 2.3 mph - -   Partly Cloudy
7:00 PM 48.2 °F 46.4 °F 93% 30.04 in 6.2 mi Variable 2.3 mph - N/A   Mostly Cloudy
7:30 PM 48.2 °F 46.4 °F 93% 30.06 in 6.2 mi WSW 3.5 mph - N/A   Mostly Cloudy
8:00 PM 48.2 °F 46.4 °F 93% 30.06 in 6.2 mi Variable 2.3 mph - N/A   Mostly Cloudy
8:30 PM 48.2 °F 46.4 °F 93% 30.06 in 6.2 mi Variable 2.3 mph - N/A   Mostly Cloudy
9:00 PM 48.2 °F 46.4 °F 93% 30.09 in 6.2 mi Variable 1.2 mph - N/A   Mostly Cloudy
9:30 PM 48.2 °F 46.4 °F 93% 30.09 in 5.0 mi Calm Calm - N/A   Mostly Cloudy
10:00 PM 48.2 °F 46.4 °F 93% 30.12 in 5.0 mi Calm Calm - N/A   Mostly Cloudy
10:30 PM 48.2 °F 46.4 °F 93% 30.12 in 5.0 mi North 2.3 mph - N/A   Mostly Cloudy
11:00 PM 46.4 °F 44.6 °F 93% 30.12 in 5.0 mi Variable 2.3 mph - N/A   Mostly Cloudy
11:30 PM 48.2 °F 44.6 °F 87% 30.12 in 6.2 mi Variable 2.3 mph - N/A   Mostly Cloudy